Content
SEND FEEDBACK

Daily
Averages
Monthly
Summary
United States of America

ACHANG BAY, GUAM


Home > North America > United States > Guam
Elevation: 30 feet     Latitude: 13 16N     Longitude: 144 45E

WEATHER
 
SELECT A DAY
Number of Records: 342,554;   Date Range: 1/1/95 - 9/16/14
 
SHARE

PRINT THIS DATA

[ ← Previous Day ]
WEATHER ALMANAC - FEBRUARY 11, 2013
[ Next Day → ]
[ °C ]   °F
Weather ElementAverageHighLow
Temperature78.1 °F82.4 °F (12:50 pm)73.4 °F (1:24 am)
Dewpoint72.9 °F75.2 °F (1:05 pm)68.2 °F (4:55 am)
Humidity84.3 %94 % (1:24 am)70 % (10:55 am)
Barometer29.87 in29.93 in (9:55 am)29.83 in (2:55 pm)
Wind Speed17.4 mph25.3 mph (1:11 am)
Wind Gust34.5 mph (1:11 am)
Weather ElementAverage
Visibility8.9 mi
Wind DirectionENE (60.6 °)

Weather ElementTotal
Precipitation0.12 in
Cooling Degree Days12.9 (Base 65)
Growing Degree Days27.9 (Base 50)
Averaged from 86 records on February 11, 2013
WEATHER CONDITIONS BREAKOUT
WIND DIRECTION BREAKOUT
WEATHER BY HOUR - FEBRUARY 11, 2013
[ °C ]   °F
Local TimeTemperatureDewpointHumidityBarometerVisibilityWind DirectionWind SpeedGust SpeedPrecipitationEventsConditions
12:55 AM76.5 °F73.2 °F90 %29.87 in10.0 miENE (60°)12.7 mphMostly Cloudy
1:11 AM77.0 °F73.4 °F89 %29.87 in8.0 miEast (80°)25.3 mph34.5 mphRainLight Rain
1:24 AM73.4 °F71.6 °F94 %29.86 in5.0 miESE (110°)8.1 mphOvercast
1:54 AM75.2 °F71.6 °F89 %29.86 in10.0 miEast (80°)16.1 mphMostly Cloudy
1:55 AM76.1 °F72.3 °F88 %29.86 in10.0 miEast (80°)15.0 mph0.04 inMostly Cloudy
2:55 AM75.7 °F70.2 °F83 %29.85 in10.0 miEast (80°)16.1 mphPartly Cloudy
3:55 AM75.2 °F68.7 °F80 %29.85 in10.0 miENE (70°)16.1 mphClear
4:55 AM75.6 °F68.2 °F78 %29.86 in10.0 miEast (80°)15.0 mphPartly Cloudy
5:55 AM74.8 °F68.7 °F81 %29.86 in10.0 miENE (60°)12.7 mphClear
6:55 AM75.2 °F69.8 °F83 %29.88 in10.0 miENE (60°)13.8 mphClear
7:55 AM77.5 °F70.5 °F79 %29.90 in10.0 miNE (50°)12.7 mphClear
8:55 AM80.1 °F71.1 °F74 %29.92 in10.0 miENE (60°)17.3 mphScattered Clouds
9:55 AM80.4 °F70.3 °F71 %29.93 in10.0 miNE (40°)16.1 mphMostly Cloudy
10:55 AM81.5 °F70.9 °F70 %29.91 in10.0 miNE (50°)17.3 mphMostly Cloudy
11:12 AM78.8 °F71.6 °F78 %29.91 in10.0 miEast (90°)20.7 mph26.5 mphMostly Cloudy
11:55 AM82.0 °F71.6 °F71 %29.89 in10.0 miNE (40°)19.6 mph24.2 mph0.00 inMostly Cloudy
12:50 PM82.4 °F71.6 °F70 %29.86 in10.0 miNE (40°)19.6 mphMostly Cloudy
12:55 PM81.5 °F72.3 °F74 %29.87 in10.0 miENE (60°)20.7 mph27.6 mphMostly Cloudy
12:56 PM80.6 °F73.4 °F79 %29.87 in8.0 miENE (70°)24.2 mph29.9 mphLight Drizzle
12:57 PM80.6 °F73.4 °F79 %29.92 in2.0 miENE (60°)24.2 mph29.9 mphRainLight Rain Showers
1:05 PM77.0 °F75.2 °F94 %29.87 in2.5 miENE (60°)20.7 mph29.9 mphRainLight Rain
1:06 PM77.0 °F75.2 °F94 %29.87 in3.0 miNE (50°)19.6 mph29.9 mphRainLight Rain
1:14 PM78.8 °F75.2 °F89 %29.87 in7.0 miNE (50°)19.6 mphOvercast
1:31 PM77.0 °F73.4 °F89 %29.87 in9.0 miNE (40°)18.4 mphOvercast
1:35 PM77.0 °F73.4 °F89 %29.86 in9.0 miNNE (30°)18.4 mphOvercast
1:40 PM77.0 °F73.4 °F89 %29.86 in10.0 miNNE (30°)18.4 mphOvercast
1:41 PM77.0 °F73.4 °F89 %29.86 in10.0 miNNE (30°)16.1 mphOvercast
1:44 PM78.8 °F73.4 °F83 %29.86 in10.0 miNNE (30°)16.1 mphOvercast
1:55 PM79.0 °F73.8 °F84 %29.86 in10.0 miNE (40°)19.6 mph0.01 inMostly Cloudy
2:15 PM78.8 °F73.4 °F83 %29.85 in10.0 miNE (40°)17.3 mphMostly Cloudy
2:17 PM80.6 °F73.4 °F79 %29.85 in10.0 miNE (50°)17.3 mphMostly Cloudy
2:48 PM80.6 °F73.4 °F79 %29.84 in10.0 miENE (60°)21.9 mph27.6 mphMostly Cloudy
2:55 PM81.3 °F73.0 °F76 %29.83 in10.0 miNE (50°)19.6 mphMostly Cloudy
2:56 PM80.6 °F73.4 °F79 %29.83 in10.0 miNE (50°)18.4 mphMostly Cloudy
3:14 PM82.4 °F73.4 °F74 %29.84 in9.0 miENE (60°)24.2 mph28.8 mphRainLight Rain
3:29 PM77.0 °F73.4 °F89 %29.84 in6.0 miNE (50°)19.6 mphLight Drizzle
3:34 PM78.8 °F75.2 °F89 %29.84 in9.0 miNE (50°)19.6 mphOvercast
3:47 PM78.8 °F75.2 °F89 %29.84 in10.0 miNE (50°)18.4 mph27.6 mphMostly Cloudy
3:53 PM78.8 °F73.4 °F83 %29.84 in10.0 miNE (50°)20.7 mphMostly Cloudy
3:55 PM79.5 °F73.6 °F82 %29.84 in10.0 miNE (50°)20.7 mph0.01 inMostly Cloudy
4:36 PM78.8 °F73.4 °F83 %29.84 in10.0 miEast (90°)12.7 mphMostly Cloudy
4:37 PM78.8 °F73.4 °F83 %29.85 in10.0 miEast (90°)12.7 mphMostly Cloudy
4:45 PM78.8 °F73.4 °F83 %29.84 in10.0 miEast (80°)11.5 mphMostly Cloudy
4:55 PM79.7 °F73.6 °F81 %29.85 in10.0 miNE (50°)16.1 mphMostly Cloudy
5:00 PM80.6 °F73.4 °F79 %29.85 in10.0 miNE (40°)15.0 mphMostly Cloudy
5:02 PM80.6 °F73.4 °F79 %29.84 in10.0 miNE (50°)16.1 mphMostly Cloudy
5:28 PM80.6 °F73.4 °F79 %29.85 in10.0 miNE (50°)16.1 mphMostly Cloudy
5:46 PM78.8 °F73.4 °F83 %29.85 in10.0 miNE (50°)19.6 mphMostly Cloudy
5:53 PM78.8 °F73.4 °F83 %29.85 in10.0 miENE (60°)18.4 mphMostly Cloudy
5:54 PM78.8 °F73.4 °F83 %29.85 in10.0 miENE (60°)17.3 mphMostly Cloudy
5:55 PM79.0 °F73.2 °F82 %29.85 in10.0 miENE (60°)17.3 mphMostly Cloudy
5:57 PM78.8 °F73.4 °F83 %29.85 in10.0 miENE (60°)19.6 mphScattered Clouds
6:06 PM78.8 °F73.4 °F83 %29.85 in10.0 miENE (60°)20.7 mphMostly Cloudy
6:11 PM78.8 °F73.4 °F83 %29.85 in10.0 miENE (60°)16.1 mphScattered Clouds
6:27 PM78.8 °F73.4 °F83 %29.86 in10.0 miNE (50°)16.1 mphMostly Cloudy
6:50 PM78.8 °F73.4 °F83 %29.86 in10.0 miNE (50°)13.8 mphScattered Clouds
6:55 PM78.4 °F73.2 °F84 %29.86 in10.0 miENE (60°)16.1 mphScattered Clouds
7:06 PM78.8 °F73.4 °F83 %29.87 in10.0 miENE (60°)17.3 mphLight Drizzle
7:12 PM77.0 °F73.4 °F89 %29.87 in10.0 miNE (50°)20.7 mphLight Drizzle
7:16 PM78.8 °F73.4 °F83 %29.87 in10.0 miNE (50°)18.4 mphRainLight Rain
7:17 PM77.0 °F73.4 °F89 %29.87 in10.0 miENE (60°)18.4 mphMostly Cloudy
7:24 PM77.0 °F73.4 °F89 %29.87 in10.0 miENE (60°)18.4 mphScattered Clouds
7:33 PM77.0 °F73.4 °F89 %29.88 in10.0 miENE (60°)18.4 mphMostly Cloudy
7:34 PM77.0 °F73.4 °F89 %29.88 in10.0 miENE (60°)19.6 mphMostly Cloudy
7:46 PM77.0 °F71.6 °F83 %29.88 in10.0 miENE (60°)16.1 mph25.3 mphScattered Clouds
7:55 PM77.7 °F73.0 °F85 %29.88 in10.0 miENE (60°)17.3 mph0.00 inScattered Clouds
8:07 PM78.8 °F71.6 °F78 %29.89 in10.0 miENE (60°)18.4 mphMostly Cloudy
8:55 PM78.6 °F72.5 °F81 %29.90 in10.0 miENE (60°)17.3 mphMostly Cloudy
9:23 PM78.8 °F73.4 °F83 %29.90 in10.0 miENE (60°)16.1 mph24.2 mphMostly Cloudy
9:55 PM78.6 °F72.9 °F82 %29.91 in10.0 miENE (60°)17.3 mphOvercast
10:21 PM78.8 °F73.4 °F83 %29.91 in10.0 miENE (60°)15.0 mphMostly Cloudy
10:29 PM78.8 °F73.4 °F83 %29.91 in10.0 miENE (60°)16.1 mphMostly Cloudy
10:39 PM78.8 °F73.4 °F83 %29.91 in10.0 miENE (60°)15.0 mphMostly Cloudy
10:49 PM78.8 °F73.4 °F83 %29.91 in4.0 miEast (90°)25.3 mph32.2 mphRainRain
10:50 PM77.0 °F73.4 °F89 %29.91 in3.0 miEast (90°)23.0 mph32.2 mphRainRain
10:51 PM77.0 °F73.4 °F89 %29.91 in2.5 miEast (90°)20.7 mph32.2 mphRainRain
10:55 PM75.9 °F73.2 °F91 %29.91 in2.5 miEast (80°)17.3 mph32.2 mph0.06 inRainLight Rain
10:56 PM75.2 °F73.4 °F94 %29.91 in2.0 miEast (90°)16.1 mph32.2 mphRainLight Rain
10:58 PM75.2 °F73.4 °F94 %29.91 in2.5 miEast (90°)13.8 mph32.2 mphRainLight Rain
10:59 PM75.2 °F73.4 °F94 %29.91 in3.0 miEast (90°)11.5 mph32.2 mphRainLight Rain
11:06 PM75.2 °F73.4 °F94 %29.91 in9.0 miENE (70°)13.8 mphMostly Cloudy
11:08 PM75.2 °F73.4 °F94 %29.91 in10.0 miENE (70°)15.0 mphOvercast
11:11 PM75.2 °F73.4 °F94 %29.92 in10.0 miENE (70°)11.5 mphOvercast
11:14 PM75.2 °F73.4 °F94 %29.91 in10.0 miENE (60°)13.8 mphOvercast
11:41 PM75.2 °F73.4 °F94 %29.91 in10.0 miENE (60°)16.1 mphMostly Cloudy
11:55 PM76.3 °F73.9 °F92 %29.91 in10.0 miENE (60°)13.8 mph0.00 inScattered Clouds
Hourly data recorded from PGUA, located miles away from Achang Bay, Guam







STORIES FROM OUR PARTNERS